星链-5685 (STARLINK-5685 )

导读

STARLINK-5685是美国SpaceX公司星链星座的一颗卫星,于2023年2月2日北京时间8时发射入轨。星链计划旨在构建全球卫星互联网星座,为全球偏远地区等提供高速互联网接入服务。该卫星属于星链扩容批次,进一步完善了星链星座的全球覆盖能力,提升星座的服务性能与容量,支撑星链系统的运营与拓展。

基本信息
目录编号:
55477
目录名称:
STARLINK-5685
国际标识:
2023-015AE
轨道中心:
EARTH
卫星名称:
星链-5685
卫星全名:
星链-5685 (STARLINK-5685 )
卫星状态:
在轨 (已飞行1229 天)
发射日期:
2023-02-02 UTC
国别 :
美国 (US)
星等 :
--
轨道信息
数据来源 国际轨道数据 AOE轨道数据
星历时间 2026-06-14T23:10:40+0800
11小时前
查看轨道信息
2026-06-14T18:00:00+0800
16小时前
查看轨道信息
半长轴 6861.203km 6861.192km
偏心率 0.0000798 0.0002186
轨道倾角 43.003° 43.005°
近地点辐角 275.370° 269.258°
升交点赤经 133.736° 134.955°
平近点角 84.706° 343.057°
近地点 482.518km 481.555km
远地点 483.614km 484.555km
周期 94.267分钟 94.267分钟
每日圈数 15.275746 15.275782
详细信息
固有亮度:
5
最大亮度:
2.5
卫星平台:
Starlink v1.5
覆盖范围:
全球
运营商:
太空探索技术公司
运营商所在国:
美国
制造商(研发单位):
太空探索技术公司
制造商所在国:
美国
使用方式:
暂无
卫星简介
星链(Starlink)计划是由太空探索技术公司(SpaceX)提出的一个巨型低轨卫星互联网星座项目,计划在2019年至2024年间在太空搭建由约1.2万颗卫星组成的“星链”网络,其中1584颗将部署在地球上空550千米处的近地轨道,并从2020年开始工作。该卫星仍在工作。
2D轨道图
3D轨道图
轨道高度分析图
轨道倾角分析图
轨道综合分析图
查看轨道综合分析图